Location: Kitchener
(43.4500°N, 80.5000°W)
Time: 01:25:19
(UTC-04:00)

Cosmos 1939 Rocket - Visible Passes

Search period start: 25 September 2016 00:00
Search period end: 05 October 2016 00:00
Orbit: 532 x 589 km, 97.6° (Epoch: 24 September)

Date Brightness Start Highest point End Pass type
(mag) Time Alt. Az. Time Alt. Az. Time Alt. Az.
25 Sep 4.9 20:24:39 12° NE 20:24:39 12° NE 20:25:54 10° NE visible
25 Sep 4.7 22:00:35 28° NNW 22:00:35 28° NNW 22:02:36 10° NNW visible
26 Sep 5.0 20:23:46 12° NE 20:23:46 12° NE 20:24:45 10° NE visible
26 Sep 4.8 21:59:43 26° NNW 21:59:43 26° NNW 22:01:34 10° NNW visible
27 Sep 5.0 20:22:53 11° NE 20:22:53 11° NE 20:23:36 10° NE visible
27 Sep 4.9 21:58:49 24° NNW 21:58:49 24° NNW 22:00:31 10° NNW visible
28 Sep 5.1 20:21:59 11° NE 20:21:59 11° NE 20:22:27 10° NE visible
28 Sep 5.0 21:57:56 22° NNW 21:57:56 22° NNW 21:59:28 10° NNW visible
29 Sep 5.1 20:21:06 10° NE 20:21:06 10° NE 20:21:16 10° NE visible
29 Sep 5.1 21:57:02 21° NNW 21:57:02 21° NNW 21:58:25 10° NNW visible
30 Sep 5.2 21:56:09 19° NNW 21:56:09 19° NNW 21:57:21 10° NNW visible
01 Oct 5.3 21:55:16 18° NNW 21:55:16 18° NNW 21:56:19 10° NNW visible
02 Oct 5.4 21:54:21 16° NNW 21:54:21 16° NNW 21:55:15 10° NNW visible
03 Oct 5.5 21:53:28 15° NNW 21:53:28 15° NNW 21:54:12 10° NNW visible
04 Oct 5.6 21:52:34 14° NNW 21:52:34 14° NNW 21:53:08 10° NNW visible
